Regional Weather Roundup
Issued by NWS San Angelo, TX

Home | Current Version | Previous Version | Text Only | Print | Product List | Glossary On
Versions: 1 2 3 4 5 6 7 8 9 10 11 12 13 14 15 16 17 18 19 20 21 22 23 24 25 26 27 28 29 30 31 32 33 34 35 36 37 38 39 40 41 42 43 44 45 46 47 48 49 50
000
ASUS44 KSJT 302310
RWRSJT
WEST CENTRAL TEXAS REGIONAL WEATHER ROUNDUP
NATIONAL WEATHER SERVICE SAN ANGELO TX
600 PM CDT THU JUL 30 2015

NOTE: "FAIR" INDICATES FEW OR NO CLOUDS BELOW 12,000 FEET WITH NO
SIGNIFICANT WEATHER AND/OR OBSTRUCTIONS TO VISIBILITY.

TXZ049-054-064>066-071>073-076>078-098-099-113-114-127-128-139-140-
154-155-168>170-310000
...LOCATIONS ACROSS WEST CENTRAL TEXAS...

CITY           SKY/WX    TMP DP  RH WIND       PRES   REMARKS
SAN ANGELO     SUNNY    100  58  24 E13       30.04F
ABILENE        MOSUNNY   94  66  39 E10       30.06F
DYESS AFB      MOSUNNY   98  66  35 E14       30.04F
JUNCTION       SUNNY     99  52  20 SE10      30.03F
SWEETWATER     MOSUNNY   94  58  29 E9        30.11F
BROWNWOOD      LGT RAIN  95  63  34 NE5       30.03F
COLEMAN        CLEAR     97  64  34 E5        30.05F
SONORA         MOSUNNY   97  54  23 SE9       30.09F
OZONA          FAIR      99  46  16 S5G10     30.08F
BRADY          MOSUNNY   99  59  26 E3        30.04F
$$

TEXAS PANHANDLE/OKLAHOMA PANHANDLE

CITY           SKY/WX    TMP DP  RH WIND       PRES   REMARKS
AMARILLO       PTSUNNY   82  66  58 E6        30.23F
BORGER         MOSUNNY   85  68  56 CALM      30.20F
CANADIAN       SUNNY     88  71  56 SE6       30.14F
DALHART        PTSUNNY   80  64  58 SE14      30.26F
DUMAS          MOCLDY    82  68  62 E8        30.24F
GUYMON         NOT AVBL
HEREFORD       MOCLDY    83  67  59 MISG      30.25R
PAMPA          CLEAR     86  68  55 E6        30.20F
PERRYTON       SUNNY     86  69  56 CALM      30.19S
$$

SOUTHERN PANHANDLE/SOUTH PLAINS/ROLLING PLAINS

CITY           SKY/WX    TMP DP  RH WIND       PRES   REMARKS
LUBBOCK        LGT RAIN  85  62  46 NE6       30.17S
SNYDER         SUNNY     96  59  29 SE7       30.10S
CHILDRESS      MOSUNNY   93  68  43 NE12G18   30.10F
SEMINOLE       MOCLDY    96  53  23 SE10G20   30.14F
$$

PERMIAN BASIN

CITY           SKY/WX    TMP DP  RH WIND       PRES   REMARKS
MIDLAND        MOSUNNY   99  53  21 E18       30.09F
ODESSA         MOSUNNY   98  49  18 SE8G21    30.10F
WINK           MOSUNNY  100  53  20 SE16      30.06F
$$

FAR WEST/SOUTHWEST MOUNTAINS/TRANS PECOS

CITY           SKY/WX    TMP DP  RH WIND       PRES   REMARKS
ALPINE         PTCLDY    87  51  29 E6        30.24F
DRYDEN           N/A     99  50  19 SE7G20    30.05F
EL PASO        MOSUNNY   90  58  33 CALM      30.14F
FORT STOCKTON  MOSUNNY   96  53  23 E15G24    30.09F
GUADALUPE PASS MOSUNNY   84  55  36 NE17G23   30.28F
MARFA          MOSUNNY   88  54  31 NE12      30.23F
PECOS          CLEAR    100  52  20 E14G21    30.04F
$$

DALLAS/FORT WORTH METROPLEX

CITY           SKY/WX    TMP DP  RH WIND       PRES   REMARKS
DFW AIRPORT    MOSUNNY  102  62  26 N13       29.98F
FTW MEACHAM    MOSUNNY  103  60  24 NE6       29.99F
DAL-EXECUTIVE  SUNNY    102  61  25 N3        29.98F
GRAND PRAIRIE  SUNNY    100  64  30 CALM      30.00F
ADDISON        MOSUNNY   99  61  28 CALM      30.00F
MESQUITE       CLEAR    100  61  27 N8        29.99F
LANCASTER      CLEAR    100  58  24 CALM      29.99F
$$

NORTH CENTRAL TEXAS

CITY           SKY/WX    TMP DP  RH WIND       PRES   REMARKS
SHRMAN/DENISON CLEAR     98  67  36 NE6       30.03F
GAINESVILLE    SUNNY     97  66  36 NE6       30.05S
BRIDGEPORT     NOT AVBL
DENTON         SUNNY    100  61  27 CALM      30.00F
WAXAHACHIE     CLEAR    100  64  31 N5        30.00F
GRANBURY       CLEAR    101  58  23 CALM      30.01F
$$

WESTERN NORTH TEXAS

CITY           SKY/WX    TMP DP  RH WIND       PRES   REMARKS
WICHITA FALLS  MOSUNNY  100  64  30 E14       30.01F
VERNON         CLEAR     97  59  28 NE7G17    30.05F
BRECKENRIDGE   PTCLDY    99  63  29 SE10G16   30.03F
COMANCHE       SUNNY     98  64  32 NE5       30.04F
$$

CENTRAL AND SOUTH CENTRAL TEXAS

CITY           SKY/WX    TMP DP  RH WIND       PRES   REMARKS
AUSTIN/BERGSTM MOSUNNY  100  62  28 VRB3      29.97F
WACO           SUNNY    100  63  29 CALM      29.97F
HILLSBORO      PTCLDY   100  60  26 CALM      29.99S
TEMPLE         SUNNY    100  61  27 CALM      29.98F
KILLEEN-GRAY   SUNNY     98  60  27 VRB2      29.99F
FORT HOOD      SUNNY     99  62  29 E3        29.98F
GEORGETOWN     MOSUNNY  100  61  27 VRB6      29.97F
LAGO VISTA     FAIR      99  58  25 S6        30.02F
SAN MARCOS     SUNNY     99  64  32 S8        29.99F
NEW BRAUNFELS  MOSUNNY   99  64  31 S7        29.97F
RANDOLPH AFB   MOSUNNY   97  64  32 SE9       30.00F
SAN ANTONIO    MOSUNNY   97  63  32 SE10      30.00F
STINSON        SUNNY     98  63  31 E6        29.97F
PLEASANTON     NOT AVBL
LA GRANGE      SUNNY    101  67  33 SE3       29.95S
GIDDINGS       CLEAR    100  60  27 CALM      30.00F
$$

EAST TEXAS

CITY           SKY/WX    TMP DP  RH WIND       PRES   REMARKS
PARIS          MOSUNNY   93  70  46 NE22G29   30.03R
CLARKSVILLE    NOT AVBL
TYLER          SUNNY    103  66  30 N8        29.98F
LONGVIEW       MOSUNNY   99  71  40 NE7       29.97S
PALESTINE      PTCLDY    99  64  31 N3        29.98F
NACOGDOCHES    MOSUNNY   99  70  39 N6        29.96S
$$

TEXAS HILL COUNTRY AND EDWARDS PLATEAU

CITY           SKY/WX    TMP DP  RH WIND       PRES   REMARKS
LLANO          CLEAR    102  59  24 SE5       30.03F
HORSESHOE BAY  FAIR     100  56  23 S3        30.01F
KERRVILLE      SUNNY     97  58  27 E9        30.05F
FREDERICKSBRG  SUNNY     96  55  25 SE6       30.05F
ROCKSPRINGS    CLOUDY    97  50  20 SE7G16    30.10F
HONDO          SUNNY     97  63  32 SE13      30.02F
UVALDE         PTCLDY    96  61  30 SE6       30.01F
DEL RIO        SUNNY    100  52  19 SE13      29.98F
$$

SOUTHEAST TEXAS

CITY           SKY/WX    TMP DP  RH WIND       PRES   REMARKS
COLLEGE STN    MOSUNNY   99  66  33 W7        29.96F
CALDWELL       CLEAR     99  61  28 CALM      30.00S
CROCKETT         N/A    102  72  37 NW8       29.98F
BRENHAM        SUNNY    100  65  32 CALM      29.97S
HUNTSVILLE     MOSUNNY  101  68  34 CALM      29.96F
CONROE         PTSUNNY   89  71  55 E10G18    29.98R THUNDER
HOUSTON BUSH   PTSUNNY   98  71  41 NE9       29.95S
HOUSTON HOBBY  PTSUNNY   98  68  37 SE5       29.94F
PERLAND        PTSUNNY   99  69  37 SE7       29.96F
WHARTON        PTCLDY    96  67  38 CALM      29.96S
$$

THE UPPER TEXAS COAST

CITY           SKY/WX    TMP DP  RH WIND       PRES   REMARKS
ORANGE         CLOUDY    85  71  62 CALM      29.98F
PORT ARTHUR    CLOUDY    81  77  88 W3        29.97F
GALVESTON      MOSUNNY   91  77  63 S8        29.97F
ANGLETON       MOSUNNY   95  78  58 S12       29.95F
BAY CITY       PTCLDY    95  73  48 SW10      29.96S
$$

TEXAS COASTAL BEND, RIO GRANDE PLAINS DEEP SOUTH TEXAS

CITY           SKY/WX    TMP DP  RH WIND       PRES   REMARKS
VICTORIA       PTSUNNY   97  69  40 VRB5      29.96F
BEEVILLE       CLOUDY    94  69  42 SE8       29.97F
ROCKPORT       SUNNY     91  71  51 S8        29.97F
PORT ARANSAS   CLEAR     86  76  71 S9        29.98F
PORT LAVACA    PTCLDY    93  75  55 S12       29.96F
CORPUS CHRISTI PTSUNNY   97  64  33 SE14      29.97F
KINGSVILLE NAS MOSUNNY   94  73  50 SE14      29.97F
COTULLA        MOSUNNY  102  57  22 SE7       29.96F
LAREDO         MOSUNNY  102  57  22 E15       29.97F
BROWNSVILLE    MOSUNNY   91  73  55 SE12      29.99F
PORT ISABEL    SUNNY     89  76  65 E14       29.99F
HEBBRONVILLE     N/A     98  59  27 SE9       29.99F
MCALLEN        MOSUNNY  100  71  39 E18G25    29.96F
WESLACO        MOSUNNY   95  69  42 SE12G21   29.96F
FALFURRIAS     CLEAR     97  65  35 E8        29.96F
EDINBURG       CLEAR     97  68  38 SE13      29.97S
$$


USA.gov is the U.S. government's official web portal to all federal, state and local government web resources and services.